Regional Weather Roundup
Issued by NWS Wilmington, NC

Home | Current Version | Previous Version | Text Only | Print | Product List | Glossary On
Versions: 1 2 3 4 5 6 7 8 9 10 11 12 13 14 15 16 17 18 19 20 21 22 23 24 25 26 27 28 29 30 31 32 33 34 35 36 37 38 39 40 41 42 43 44 45 46 47 48 49 50
000
ASUS42 KILM 080413
RWRILM
RWRILM
REGIONAL HOURLY WEATHER ROUNDUP
NATIONAL WEATHER SERVICE WILMINGTON NC
1100 PM EST SUN FEB 07 2016

NOTE: "FAIR" INDICATES FEW OR NO CLOUDS BELOW 12,000 FEET WITH NO
SIGNIFICANT WEATHER AND/OR OBSTRUCTIONS TO VISIBILITY.

...............WFO WILMINGTON COUNTY WARNING AREA...............

......COASTAL NC AND SC COUNTIES......

CITY           SKY/WX    TMP DP  RH WIND       PRES   REMARKS
WILMINGTON     CLOUDY    41  29  62 NW17      29.75R
N MYRTLE BEACH MOCLDY    43  27  53 NW14G20   29.81R
MYRTLE BEACH   NOT AVBL

......INLAND NC AND SC COUNTIES.......

CITY           SKY/WX    TMP DP  RH WIND       PRES   REMARKS
LUMBERTON      CLOUDY    43  26  51 NW13      29.85S
ELIZABETHTOWN  CLOUDY    42  28  57 NW13      29.83R
WHITEVILLE     CLOUDY    42  28  56 W9        29.82S
FLORENCE       CLOUDY    41  26  55 NW7       29.89F
DARLINGTON     CLOUDY    37  23  56 NW6       29.90S WCI  33
KINGSTREE      FAIR      37  27  65 W5        29.91S WCI  34
HARTSVILLE     FAIR      37  27  65 W3        29.90S
BENNETTSVILLE  FAIR      41  30  65 W6        29.88F
CONWAY         FAIR      43  27  52 NW6       29.87R
GEORGETOWN     FAIR      43  28  56 NW9       29.90R
MARION         FAIR      43  27  52 NW10G17   29.88S

....................REST OF NORTH CAROLINA......................

.........EASTERN NC.........

CITY           SKY/WX    TMP DP  RH WIND       PRES   REMARKS
CAPE HATTERAS  LGT RAIN  45  42  89 N14G38    29.45R
JACKSONVILLE   CLOUDY    39  25  56 NW6       29.74S WCI  35
MOREHEAD CITY  CLOUDY    39  35  86 NW30G38   29.60R WCI  27
KENANSVILLE      N/A     41  25  53 NW12G20   29.78S
NEW BERN       CLOUDY    39  31  72 N22G37    29.69R WCI  29
ELIZABETH CITY CLOUDY    40  35  83 N26G33    29.65F WCI  29

.........CENTRAL NC.........

CITY           SKY/WX    TMP DP  RH WIND       PRES   REMARKS
RALEIGH DURHAM CLOUDY    40  22  48 N7        29.86S
ROCKY MOUNT    CLOUDY    41  23  48 N16G23    29.79F
ROANOKE RAPIDS NOT AVBL
FAYETTEVILLE   CLOUDY    43  24  47 N14       29.84R
HOFFMAN        CLOUDY    42  25  50 N7        29.86F

.........WESTERN NC.........

CITY           SKY/WX    TMP DP  RH WIND       PRES   REMARKS
CHARLOTTE      PTCLDY    35  24  64 NW3       29.90F
GREENSBORO     CLOUDY    38  22  52 N3        29.87F
HICKORY        NOT AVBL
BOONE          NOT AVBL
ASHEVILLE      NOT AVBL

.....................REST OF SOUTH CAROLINA.....................

.........EASTERN SC.........

CITY           SKY/WX    TMP DP  RH WIND       PRES   REMARKS
CHARLESTON     CLEAR     43  26  51 W7        29.94R
BEAUFORT MCAS  CLEAR     36  32  85 SW7       29.97S WCI  30
HILTON HEAD    CLEAR     37  36  93 SW5       29.99S WCI  34

.........CENTRAL SC.........

CITY           SKY/WX    TMP DP  RH WIND       PRES   REMARKS
COLUMBIA       CLEAR     32  27  81 W6        29.93F WCI  26
ORANGEBURG     CLEAR     36  32  85 SW3       29.93F
SUMTER SHAW    CLEAR     38  26  61 W6        29.89F WCI  34

.........WESTERN SC.........

CITY           SKY/WX    TMP DP  RH WIND       PRES   REMARKS
GREENVILLE     NOT AVBL
ROCK HILL      CLEAR     31  25  78 CALM      29.91F
ANDERSON       CLEAR     38  26  62 CALM      29.93R
CLEMSON        NOT AVBL
GREENWOOD      CLEAR     33  26  75 CALM      29.94R


...................COASTAL AND OFFSHORE REPORTS..................

................LOCAL PIERS AND NC RESERVE................


STATION/POSITION TIME  SKY/WX   TEMP    WIND        PRES    VSBY
                                AIR SEA DIR/SP/G
                 (UTC)          (F)     (DEG/KT/KT) (MB)    (MI)
JOHNY MRCER PIER 0300            40 52  330/ 20/ 27 1005.4R
NC RESRV MASNBRO NOT AVBL
OCEAN CREST PIER NOT AVBL
SPRINGMAID  PIER 0300            43 51  280/ 12/ 20 1009.8R


................COASTAL AND OFFSHORE BUOYS................


STATION/POSITION TIME  SKY/WX   TEMP    WIND        PRES    VSBY
                                AIR SEA DIR/SP/G
                 (UTC)          (F)     (DEG/KT/KT) (MB)    (MI)
DIMNDSHOAL 41025 0350            51 70  360/ 43/ 52  993.0R
WVE H/P(F/S)= 19/12 SWL H/P/D(F/S/D)= 11/120/12

CAPE LOOKOUT     NOT AVBL
ONSLOW BAY 41036 NOT AVBL
ONSLOW BAY 41064 0308            40 60               999.6R
ONSLOW BAY 41159 0325               60                N/A
WVE H/P(F/S)= 14/13 SWL H/P/D(F/S/D)=  8/ 90/13

5SE WRITBC 41038 0308            43 52  330/ 27     1006.3R
MASNBO INL 41110 0306               52                N/A
WVE H/P(F/S)=  6/13 SWL H/P/D(F/S/D)=  3/100/13

WILM HARBR 41108 0326               51                N/A
WVE H/P(F/S)=  7/ 5 SWL H/P/D(F/S/D)=  2/150/12

27SE WRITB 41037 0308            42 60  360/ 33/ 47 1001.1R
FRYING PAN 41013 0400            48 64  320/ 29/ 37 1007.4R
SUNST NRSH 41024 NOT AVBL
CAPRS NRSH 41029 0308            47     310/ 17/ 23 1012.2R
EDISTO     41004 0350            52 66  320/ 27/ 33 1011.2R
WVE H/P(F/S)= 10/ 6 SWL H/P/D(F/S/D)=  3/17



..........OFFSHORE BUOYS BEYOND 100 NM OFFSHORE...........
.....IN A TRIANGLE---HAT TO BERMUDA TO BAHAMAS TO HAT.....


STATION/POSITION TIME  SKY/WX   TEMP    WIND        PRES    VSBY
                                AIR SEA DIR/SP/G
                 (UTC)          (F)     (DEG/KT/KT) (MB)    (MI)
150E HAT   41001 0400            63 71  180/ 19/ 29  985.9F
W BERMUDA  41048 0350            68 70  210/ 35/ 45  997.3F
WVE H/P(F/S)= 15/ 8

ATLANTIC S 41049 0350            75 73  160/ 19/ 23 1016.6F
WVE H/P(F/S)=  7/ 8 SWL H/P/D(F/S/D)=  3/310/11

E BAHAMAS  41046 0350            79 79  190/ 19/ 23 1015.3F
WVE H/P(F/S)=  8/ 9 SWL H/P/D(F/S/D)=  5/ 90/ 9

NE BAHAMAS 41047 0350            72 75  260/ 31/ 35 1010.3R
WVE H/P(F/S)= 15/10 SWL H/P/D(F/S/D)=  8/260/10

120E CANVRL41010 0320            62 74              1014.3R

END



USA.gov is the U.S. government's official web portal to all federal, state and local government web resources and services.